FW2847 Weather Reports


Display with metric or nautical units.
time (UTC)temp
F
wind
direction
speed
MPH
gust
MPH
rain 1hr
in
rain 24hr
in
rain mn
in
humidity
%
barometer
mb
20260902042930 67 302 3.0 5.0 0.00 0.03 0.03 53 1020.6
20260902042430 67 298 4.0 6.0 0.00 0.03 0.03 53 1020.6
20260902041930 68 295 4.0 6.0 0.00 0.03 0.03 52 1020.6
20260902041430 68 281 3.0 6.0 0.00 0.03 0.03 53 1020.6
20260902040931 68 279 2.0 5.0 0.00 0.03 0.03 54 1020.6
20260902040431 69 290 3.0 5.0 0.00 0.03 0.03 53 1020.6
20260902035932 69 310 4.0 6.0 0.00 0.03 0.03 51 1020.6
20260902035431 68 281 4.0 6.0 0.00 0.03 0.03 53 1020.6
20260902035203 67 300 4.0 6.0 0.00 0.03 0.03 60 1020.6
20260902034429 68 297 4.0 7.0 0.00 0.03 0.03 60 1020.6
20260902033931 69 310 5.0 9.0 0.00 0.03 0.03 56 1020.6
20260902033427 70 293 5.0 9.0 0.00 0.03 0.03 52 1020.6
20260902032927 69 278 4.0 7.0 0.00 0.03 0.03 50 1020.6
20260902032701 69 300 4.0 6.0 0.00 0.03 0.03 52 1020.6
20260902031929 70 290 3.0 6.0 0.00 0.03 0.03 50 1020.6
20260902031429 70 289 1.0 5.0 0.00 0.03 0.03 49 1020.6
20260902030928 71 305 2.0 5.0 0.00 0.03 0.03 47 1020.6
20260902030702 71 344 2.0 4.0 0.00 0.03 0.03 47 1020.6
20260902025927 72 315 2.0 4.0 0.00 0.03 0.03 46 1020.6
20260902025427 73 288 0.0 3.0 0.00 0.03 0.03 42 1020.6
20260902024924 73 275 0.0 0.0 0.00 0.04 0.03 40 1020.6
20260902024424 73 275 0.0 0.0 0.00 0.05 0.03 41 1020.6
20260902023922 72 275 0.0 0.0 0.00 0.06 0.03 40 1020.6
20260902023421 72 275 0.0 0.0 0.00 0.07 0.03 42 1020.6
20260902023150 73 275 0.0 0.0 0.00 0.07 0.03 42 1020.6
20260902022421 73 275 0.0 0.0 0.00 0.07 0.03 40 1020.6
20260902021916 74 275 0.0 1.0 0.00 0.08 0.03 39 1020.6
20260902021647 74 275 0.0 1.0 0.00 0.08 0.03 39 1020.6
20260902021149 74 278 0.0 0.0 0.00 0.09 0.03 39 1020.6
20260902020648 73 278 0.0 2.0 0.00 0.09 0.03 39 1020.6
20260902015918 73 278 1.0 4.0 0.00 0.09 0.03 41 1020.6
20260902015414 73 285 1.0 4.0 0.00 0.09 0.03 42 1020.6
20260902014914 73 299 2.0 9.0 0.00 0.09 0.03 40 1020.6
20260902014648 73 22 5.0 12.0 0.00 0.09 0.03 42 1020.6
20260902013915 73 311 5.0 16.0 0.00 0.09 0.03 44 1020.6
20260902013645 74 278 3.0 16.0 0.00 0.09 0.03 41 1020.6
20260902012914 74 281 3.0 5.0 0.00 0.09 0.03 40 1020.6
20260902012646 74 295 3.0 5.0 0.00 0.09 0.03 40 1020.6
20260902011914 74 294 2.0 6.0 0.00 0.09 0.03 41 1020.6
20260902011414 74 310 2.0 6.0 0.00 0.09 0.03 44 1020.6
20260902011145 74 83 1.0 5.0 0.00 0.09 0.03 40 1020.6
20260902010414 75 70 3.0 6.0 0.00 0.09 0.03 41 1020.6
20260902005919 76 77 1.0 8.0 0.00 0.09 0.03 43 1020.6
20260902005914 75 53 2.0 8.0 0.00 0.09 0.03 39 1020.6
20260902005534 77 291 0.0 3.0 0.00 0.09 0.03 35 1020.6
20260902004645 77 269 0.0 3.0 0.00 0.09 0.03 35 1020.6
20260902003913 77 12 0.0 3.0 0.00 0.09 0.03 34 1020.6
20260902003413 78 96 1.0 4.0 0.00 0.10 0.03 34 1020.6
20260902002912 78 96 2.0 9.0 0.00 0.10 0.03 34 1020.6
20260902002645 78 221 1.0 9.0 0.00 0.10 0.03 32 1020.6
20260902001911 79 96 0.0 0.0 0.00 0.10 0.03 33 1020.6
20260902001409 79 96 0.0 0.0 0.00 0.10 0.03 34 1020.6
20260902000911 79 96 0.0 0.0 0.00 0.10 0.03 33 1020.6
20260902000410 80 96 0.0 0.0 0.00 0.10 0.03 33 1020.6
20260901235910 80 96 0.0 0.0 0.00 0.10 0.03 31 1020.6
20260901235412 80 96 0.0 0.0 0.00 0.10 0.03 33 1020.6
20260901234910 81 96 0.0 1.0 0.00 0.10 0.03 32 1020.6
20260901234409 81 96 0.0 1.0 0.00 0.10 0.03 32 1020.6
20260901233909 81 96 0.0 4.0 0.00 0.10 0.03 32 1020.6
20260901233642 82 96 0.0 4.0 0.00 0.10 0.03 31 1020.6
20260901232911 83 94 0.0 2.0 0.00 0.10 0.03 31 1020.6
20260901232413 83 254 0.0 2.0 0.00 0.10 0.03 31 1020.6
20260901231911 83 142 0.0 2.0 0.00 0.10 0.03 31 1020.6
20260901231409 82 174 0.0 1.0 0.00 0.10 0.03 32 1020.6
20260901230911 82 115 0.0 0.0 0.00 0.10 0.03 31 1020.6
20260901230411 82 138 1.0 4.0 0.00 0.10 0.03 32 1020.6
20260901225911 81 137 1.0 4.0 0.00 0.10 0.03 32 1020.6
20260901225410 81 89 2.0 4.0 0.00 0.10 0.03 32 1020.6
20260901224912 81 114 1.0 4.0 0.00 0.10 0.03 31 1020.6
20260901224410 80 110 1.0 4.0 0.00 0.10 0.03 34 1020.6
20260901223911 80 72 2.0 4.0 0.00 0.10 0.03 35 1020.6
20260901223409 80 70 3.0 5.0 0.00 0.10 0.03 34 1020.6
20260901222911 80 84 3.0 5.0 0.00 0.10 0.03 34 1020.6
20260901222409 81 100 2.0 6.0 0.00 0.10 0.03 33 1020.6
20260901221912 81 75 1.0 6.0 0.00 0.10 0.03 34 1020.6
20260901221411 81 130 1.0 6.0 0.00 0.10 0.03 34 1020.6
20260901221140 81 175 1.0 3.0 0.00 0.10 0.03 33 1020.6
20260901220641 82 222 1.0 6.0 0.00 0.10 0.03 32 1020.6
20260901215911 82 107 1.0 6.0 0.00 0.10 0.03 32 1020.6
20260901215410 82 80 0.0 3.0 0.00 0.10 0.03 33 1020.6
20260901214911 82 91 1.0 4.0 0.00 0.10 0.03 33 1020.6
20260901214409 82 45 3.0 6.0 0.00 0.10 0.03 33 1020.6
20260901213910 81 348 4.0 7.0 0.00 0.10 0.03 33 1020.6
20260901213411 81 43 4.0 7.0 0.00 0.10 0.03 35 1020.6
20260901213141 80 70 4.0 8.0 0.00 0.10 0.03 37 1020.6
20260901212408 78 55 2.0 8.0 0.00 0.10 0.03 38 1020.6
20260901211910 79 108 1.0 4.0 0.00 0.10 0.03 37 1020.6
20260901211407 79 101 3.0 7.0 0.00 0.10 0.03 37 1020.6
20260901210908 79 308 4.0 7.0 0.00 0.10 0.03 36 1020.6
20260901210406 79 96 3.0 7.0 0.00 0.10 0.03 36 1020.6
20260901205905 79 100 2.0 7.0 0.00 0.10 0.03 37 1020.6
20260901205405 79 68 2.0 6.0 0.00 0.10 0.03 36 1020.6
20260901204906 80 82 1.0 6.0 0.00 0.10 0.03 36 1020.6
20260901204405 80 120 0.0 3.0 0.00 0.10 0.03 36 1020.6
20260901203906 80 75 0.0 3.0 0.00 0.10 0.03 35 1020.6
20260901203408 81 84 1.0 4.0 0.00 0.10 0.03 34 1020.6
20260901203404 80 86 0.0 4.0 0.00 0.10 0.03 36 1020.6
20260901202405 81 85 1.0 4.0 0.00 0.10 0.03 34 1020.6
20260901201904 82 120 2.0 4.0 0.00 0.10 0.03 35 1020.6
20260901201403 81 107 1.0 4.0 0.00 0.10 0.03 35 1020.6
20260901200906 81 77 1.0 8.0 0.00 0.10 0.03 35 1020.6
20260901200401 81 120 3.0 11.0 0.00 0.10 0.03 35 1020.6
20260901195902 82 118 3.0 11.0 0.00 0.10 0.03 35 1020.6
20260901195404 82 104 3.0 9.0 0.00 0.10 0.03 35 1020.6
20260901194901 82 75 4.0 11.0 0.00 0.10 0.03 36 1020.6
20260901194401 81 90 3.0 11.0 0.00 0.10 0.03 37 1020.6
20260901194132 82 116 2.0 7.0 0.00 0.10 0.03 35 1020.6
20260901193403 82 242 2.0 7.0 0.00 0.10 0.03 35 1020.6
20260901192903 82 102 3.0 5.0 0.00 0.10 0.03 35 1020.6
20260901192403 82 225 3.0 8.0 0.00 0.10 0.03 37 1020.6
20260901191901 80 85 4.0 9.0 0.00 0.10 0.03 37 1020.6
20260901191401 80 108 4.0 9.0 0.00 0.10 0.03 39 1020.6
20260901190901 79 98 4.0 9.0 0.00 0.10 0.03 38 1020.6
20260901190633 78 84 5.0 11.0 0.00 0.10 0.03 39 1020.6
20260901185902 78 125 5.0 11.0 0.00 0.10 0.03 40 1020.6
20260901185403 79 90 5.0 10.0 0.00 0.10 0.03 38 1020.6
20260901184903 79 77 4.0 10.0 0.00 0.10 0.03 39 1020.6
20260901184359 80 105 3.0 9.0 0.00 0.10 0.03 38 1020.6
20260901183901 80 146 3.0 9.0 0.00 0.10 0.03 40 1020.6
20260901183400 79 95 3.0 13.0 0.00 0.10 0.03 40 1020.6
20260901182900 79 89 2.0 13.0 0.00 0.10 0.03 41 1020.6
20260901182400 78 315 3.0 8.0 0.00 0.10 0.03 43 1020.6
20260901182130 78 89 3.0 8.0 0.00 0.10 0.03 42 1020.6
20260901181400 77 102 4.0 9.0 0.00 0.10 0.03 43 1020.6
20260901181132 77 116 5.0 13.0 0.00 0.10 0.03 41 1020.6
20260901180359 77 125 5.0 13.0 0.00 0.10 0.03 43 1020.6
20260901175900 78 122 5.0 12.0 0.00 0.10 0.03 43 1020.6
20260901175359 77 63 5.0 10.0 0.00 0.10 0.03 46 1020.6
20260901174901 77 80 5.0 10.0 0.00 0.10 0.03 46 1020.6
20260901174359 77 112 4.0 9.0 0.00 0.10 0.03 44 1020.6
20260901173858 77 122 6.0 11.0 0.00 0.10 0.03 46 1020.6
20260901173358 77 89 6.0 11.0 0.00 0.10 0.03 43 1020.6
20260901172857 77 83 4.0 10.0 0.00 0.10 0.03 44 1020.6
20260901172400 77 115 5.0 10.0 0.00 0.10 0.03 42 1020.6
20260901171857 77 120 5.0 10.0 0.00 0.10 0.03 43 1020.6
20260901171357 76 88 5.0 9.0 0.00 0.10 0.03 43 1020.6
20260901170900 77 123 4.0 9.0 0.00 0.10 0.03 45 1020.6
20260901170359 77 84 3.0 7.0 0.00 0.10 0.03 45 1020.6
20260901165858 76 98 2.0 7.0 0.00 0.10 0.03 45 1020.6
20260901165358 76 158 1.0 7.0 0.00 0.10 0.03 44 1020.6
20260901164855 76 127 0.0 3.0 0.00 0.10 0.03 46 1020.6
20260901164355 75 287 1.0 5.0 0.00 0.10 0.03 48 1020.6
20260901163856 74 243 3.0 8.0 0.00 0.10 0.03 49 1020.6
20260901163355 73 76 3.0 8.0 0.00 0.10 0.03 50 1020.6
20260901162855 74 93 2.0 7.0 0.00 0.10 0.03 50 1020.6
20260901162355 74 107 1.0 5.0 0.00 0.10 0.03 52 1020.6
20260901161855 74 50 0.0 4.0 0.00 0.10 0.03 53 1020.6
20260901161355 73 94 1.0 6.0 0.00 0.10 0.03 55 1020.6
20260901160855 72 84 2.0 6.0 0.00 0.10 0.03 57 1020.6
20260901160629 71 85 2.0 4.0 0.00 0.10 0.03 62 1020.6
20260901155854 71 72 1.0 4.0 0.00 0.10 0.03 59 1020.6
20260901155354 71 233 1.0 6.0 0.00 0.10 0.03 58 1020.6
20260901155124 72 297 1.0 6.0 0.00 0.10 0.03 49 1020.6
20260901154624 70 280 1.0 5.0 0.00 0.10 0.03 55 1020.6
20260901153852 68 264 0.0 0.0 0.00 0.10 0.03 60 1020.6
20260901153353 67 263 0.0 2.0 0.00 0.10 0.03 59 1020.6
20260901153125 67 267 1.0 3.0 0.00 0.10 0.03 65 1020.6
20260901152354 66 257 1.0 3.0 0.00 0.10 0.03 63 1020.6
20260901151853 65 275 0.0 2.0 0.00 0.10 0.03 64 1020.6
20260901151356 65 219 0.0 0.0 0.00 0.10 0.03 72 1020.6
20260901151351 65 123 0.0 2.0 0.00 0.10 0.03 69 1020.6
20260901150350 65 96 0.0 0.0 0.00 0.10 0.03 74 1020.6
20260901145849 65 96 0.0 0.0 0.00 0.10 0.03 73 1020.6
20260901145349 65 96 0.0 0.0 0.00 0.10 0.03 73 1020.6
20260901144850 65 96 0.0 0.0 0.00 0.10 0.03 71 1020.6
20260901144348 65 319 0.0 0.0 0.00 0.10 0.03 71 1020.6
20260901143849 64 299 1.0 7.0 0.00 0.10 0.03 67 1020.6
20260901143352 64 96 1.0 7.0 0.00 0.10 0.03 69 1020.6
20260901142849 63 206 0.0 0.0 0.00 0.10 0.03 74 1020.6
20260901142348 63 101 0.0 0.0 0.00 0.10 0.03 74 1020.6
20260901141847 62 113 0.0 0.0 0.00 0.10 0.03 72 1020.6
20260901141345 62 113 0.0 0.0 0.00 0.10 0.03 73 1020.6
20260901140846 62 113 0.0 0.0 0.00 0.10 0.03 72 1020.6
20260901140346 62 102 0.0 0.0 0.00 0.10 0.03 72 1020.6
20260901135847 62 102 0.0 0.0 0.00 0.10 0.03 72 1020.6
20260901135346 62 114 0.0 0.0 0.00 0.10 0.03 72 1020.6
20260901134846 62 252 0.0 0.0 0.00 0.10 0.03 71 1020.6
20260901134343 63 226 0.0 0.0 0.00 0.10 0.03 70 1020.6
20260901133841 63 144 0.0 0.0 0.00 0.10 0.03 69 1020.6
20260901133342 63 172 0.0 1.0 0.00 0.10 0.03 68 1020.6
20260901132841 63 262 0.0 2.0 0.00 0.10 0.03 69 1020.6
20260901132343 63 285 0.0 0.0 0.00 0.10 0.03 67 1020.6
20260901132338 63 262 0.0 2.0 0.00 0.10 0.03 66 1020.6
20260901131338 62 285 0.0 2.0 0.00 0.10 0.03 69 1020.6
20260901130840 62 285 0.0 2.0 0.00 0.10 0.03 69 1020.6
20260901130339 62 275 0.0 3.0 0.00 0.10 0.03 71 1020.6
20260901130108 61 272 0.0 3.0 0.00 0.10 0.03 73 1020.6
20260901125342 60 290 0.0 3.0 0.00 0.10 0.03 77 1020.6
20260901125337 60 276 0.0 0.0 0.00 0.10 0.03 76 1020.6
20260901125002 59 298 2.0 5.0 0.00 0.10 0.03 79 1020.6
20260901123844 60 287 1.0 3.0 0.00 0.10 0.03 79 1020.6
20260901123838 59 295 2.0 5.0 0.00 0.10 0.03 79 1020.6
20260901123108 60 294 1.0 3.0 0.00 0.10 0.03 79 1020.6
20260901122338 60 287 0.0 3.0 0.00 0.10 0.03 79 1020.6
20260901121835 60 294 1.0 4.0 0.00 0.10 0.03 78 1020.6
20260901121335 60 276 3.0 5.0 0.00 0.10 0.03 78 1020.6
20260901120835 60 300 3.0 5.0 0.00 0.10 0.03 77 1020.6
20260901120334 61 298 2.0 5.0 0.00 0.10 0.03 76 1020.6
20260901115830 60 279 2.0 4.0 0.00 0.10 0.03 76 1020.6
20260901115330 60 283 1.0 2.0 0.00 0.10 0.03 77 1020.6
20260901114830 61 279 0.0 2.0 0.00 0.10 0.03 76 1020.6
20260901114328 61 279 0.0 1.0 0.00 0.10 0.03 75 1020.6
20260901113828 61 279 0.0 0.0 0.00 0.10 0.03 76 1020.6
20260901113327 61 280 0.0 0.0 0.00 0.10 0.03 75 1020.6
20260901112827 60 279 0.0 0.0 0.00 0.10 0.03 77 1020.6
20260901112328 60 280 0.0 0.0 0.00 0.10 0.03 78 1020.6
20260901111828 60 279 0.0 0.0 0.00 0.10 0.03 81 1020.6
20260901111328 60 279 0.0 0.0 0.00 0.10 0.03 81 1020.6
20260901110827 60 280 0.0 0.0 0.00 0.10 0.03 80 1020.6
20260901110328 60 280 0.0 0.0 0.00 0.10 0.03 81 1020.6
20260901105827 60 279 0.0 0.0 0.00 0.10 0.03 81 1020.6
20260901105326 60 280 0.0 0.0 0.00 0.10 0.03 82 1020.6
20260901104827 60 279 0.0 0.0 0.00 0.10 0.03 82 1020.6
20260901104328 60 279 0.0 0.0 0.00 0.10 0.03 81 1020.6
20260901103827 60 280 0.0 0.0 0.00 0.10 0.03 80 1020.6
20260901103327 60 279 0.0 0.0 0.00 0.10 0.03 81 1020.6
20260901102826 60 280 0.0 0.0 0.00 0.10 0.03 82 1020.6
20260901102328 60 280 0.0 0.0 0.00 0.10 0.03 81 1020.6
20260901101828 60 279 0.0 0.0 0.00 0.10 0.03 80 1020.6
20260901101326 60 279 0.0 0.0 0.00 0.10 0.03 80 1020.6
20260901100828 60 280 0.0 0.0 0.00 0.10 0.03 82 1020.6
20260901100329 60 279 0.0 0.0 0.00 0.10 0.03 82 1020.6
20260901095826 60 280 0.0 0.0 0.00 0.10 0.03 82 1020.6
20260901095327 60 279 0.0 0.0 0.00 0.10 0.03 81 1020.6
20260901094827 61 279 0.0 0.0 0.00 0.10 0.03 81 1020.6
20260901094559 61 279 0.0 0.0 0.00 0.10 0.03 81 1020.6
20260901093826 61 279 0.0 0.0 0.00 0.10 0.03 82 1020.6
20260901093327 61 279 0.0 0.0 0.00 0.10 0.03 82 1020.6
20260901092829 61 279 0.0 0.0 0.00 0.10 0.03 82 1020.6
20260901092326 61 279 0.0 0.0 0.00 0.10 0.03 81 1020.6
20260901091827 61 279 0.0 0.0 0.00 0.10 0.03 81 1020.6
20260901091558 61 279 0.0 0.0 0.00 0.10 0.03 80 1020.6
20260901091058 62 279 0.0 0.0 0.00 0.10 0.03 79 1020.6
20260901090328 61 279 0.0 0.0 0.00 0.10 0.03 79 1020.6
20260901085828 62 279 0.0 0.0 0.00 0.10 0.03 80 1020.6
20260901085327 61 279 0.0 0.0 0.00 0.10 0.03 80 1020.6
20260901084824 61 279 0.0 0.0 0.00 0.10 0.03 82 1020.6
20260901084325 62 280 0.0 0.0 0.00 0.10 0.03 81 1020.6
20260901083824 62 279 0.0 0.0 0.00 0.10 0.03 80 1020.6
20260901083556 61 279 0.0 0.0 0.00 0.10 0.03 80 1020.6
20260901082822 61 279 0.0 0.0 0.00 0.10 0.03 79 1020.6
20260901082321 61 279 0.0 0.0 0.00 0.10 0.03 80 1020.6
20260901081823 61 279 0.0 0.0 0.00 0.10 0.03 81 1020.6
20260901081322 61 279 0.0 0.0 0.00 0.10 0.03 80 1020.6
20260901080822 61 279 0.0 0.0 0.00 0.10 0.03 82 1020.6
20260901080321 61 279 0.0 0.0 0.01 0.10 0.03 83 1020.6
20260901080054 61 276 0.0 0.0 0.02 0.10 0.03 81 1020.6
20260901075321 61 276 0.0 0.0 0.02 0.10 0.03 80 1020.6
20260901074820 61 276 0.0 0.0 0.03 0.10 0.03 81 1020.6
20260901074321 61 276 0.0 0.0 0.03 0.10 0.03 82 1020.6
20260901073819 61 276 0.0 0.0 0.03 0.10 0.03 84 1020.6
20260901073319 61 276 0.0 1.0 0.03 0.10 0.03 85 1020.6
20260901072819 60 276 0.0 2.0 0.03 0.10 0.03 85 1020.6
20260901072321 60 281 0.0 2.0 0.03 0.10 0.03 85 1020.6
20260901071818 60 252 0.0 0.0 0.03 0.10 0.03 85 1020.6
20260901071319 60 103 0.0 0.0 0.03 0.10 0.03 86 1020.6
20260901071049 61 103 0.0 0.0 0.03 0.10 0.03 84 1020.6
20260901070317 61 103 0.0 0.0 0.02 0.09 0.02 83 1020.6
20260901065817 62 101 0.0 1.0 0.01 0.08 0.01 82 1020.6
20260901065316 62 91 0.0 2.0 0.01 0.08 0.01 80 1020.6
20260901064816 62 69 0.0 2.0 0.00 0.07 0.00 79 1020.6
20260901064314 62 215 0.0 1.0 0.00 0.07 0.00 79 1020.6
20260901063814 62 153 0.0 1.0 0.00 0.07 0.00 79 1020.6
20260901063317 62 148 0.0 1.0 0.00 0.07 0.00 79 1020.6
20260901062814 63 254 0.0 1.0 0.00 0.07 0.00 78 1020.6
20260901062316 63 278 0.0 0.0 0.00 0.07 0.00 76 1020.6
20260901061816 63 279 0.0 0.0 0.00 0.07 0.00 76 1020.6
20260901061316 63 279 0.0 0.0 0.00 0.07 0.00 76 1020.6
20260901061047 63 278 0.0 0.0 0.00 0.07 0.00 77 1020.6
20260901060313 63 278 0.0 0.0 0.00 0.07 0.00 77 1020.6
20260901055815 63 278 0.0 1.0 0.00 0.07 0.07 77 1020.6
20260901055312 63 279 0.0 2.0 0.00 0.07 0.07 77 1020.6
20260901054812 63 298 1.0 3.0 0.00 0.07 0.07 77 1020.6
20260901054314 62 272 2.0 5.0 0.00 0.07 0.07 79 1020.6
20260901053818 61 278 2.0 5.0 0.00 0.07 0.07 83 1020.6
20260901053813 62 280 2.0 5.0 0.00 0.07 0.07 82 1020.6
20260901052810 61 288 2.0 4.0 0.00 0.07 0.07 84 1020.6
20260901052311 61 289 2.0 4.0 0.00 0.07 0.07 84 1020.6
20260901052043 61 297 1.0 4.0 0.00 0.07 0.07 84 1020.6
20260901051311 60 258 1.0 3.0 0.00 0.07 0.07 86 1020.6
20260901050812 60 280 2.0 5.0 0.00 0.07 0.07 86 1020.6
20260901050312 60 293 2.0 5.0 0.00 0.07 0.07 86 1020.6
20260901050043 60 283 2.0 4.0 0.00 0.07 0.07 86 1020.6
20260901045311 60 287 2.0 4.0 0.00 0.07 0.07 87 1020.6
20260901044809 60 293 2.0 4.0 0.00 0.07 0.07 87 1020.6
20260901044308 60 277 3.0 4.0 0.00 0.07 0.07 87 1020.6